Tanager 1

operational
NORAD ID: 60507 Int'l Des: 2024-149 Owner: PLAN Country: US
LEOCIRCULARRETROGRADESSO

About Tanager 1

Description loading...

Live Position

Loading 3D Globe...

Upcoming Passes

Altitude History

Altitude vs Time

uPlot chart will show altitude changes over time

Two-Line Element Set

1 60507U 24149AR 26062.21044526 .00005039 00000-0 11423-3 0 9999
2 60507 97.3799 155.4968 0007213 219.2528 140.8197 15.43535761 86682
Epoch: Mar 3, 2026 • Age: 22 hours

Current Status

Altitude 444.0 km
Velocity 7.65 km/s
Sub-Earth Point 26.92°N, 16.54°E
Launch Date Aug 16, 2024
Age 1.5 years
Type earth observation

Technical Details

Classification Payload
Mass 150.00 kg
Dry Mass 140.00 kg
Total Mass 150.00 kg
Length 2.30 m
Diameter 0.60 m
Span 3.00 m
Shape Box+2 pan
Manufacturer PLAN
Bus Type Tanager
Phase Status In Orbit
Owner/State PLAN/US

Large Constellations

Loading constellations...